Hourly Data Report for July 30, 2021

WINNIPEG A CS
MANITOBA
Current Station Operator: ECCC - MSC

49°55'00.000" N
97°14'58.000" W
238.70 m
502S001
71849
XWG

Download Data

Hourly Data (July 2021)
Hourly Data Report for July 30, 2021
TIME
LST
Temp Definition
°C
Dew Point Definition
°C
Rel Hum Definition
%
Precip. Amount Definition
mm

Wind Dir Definition
10's deg

Wind Spd Definition
km/h
Visibility Definition
km
Stn Press Definition
kPa
Hmdx Definition


Wind Chill Definition


Weather Definition


00:00 20.4 8.6 47 0.0 19 19   99.09     LegendNANA
01:00 19.4 9.1 51 0.0 19 17   99.09     LegendNANA
02:00 19.5 9.3 51 0.0 20 19   99.04     LegendNANA
03:00 19.1 9.8 55 0.0 20 17   99.01     LegendNANA
04:00 17.8 9.9 60 0.0 20 19   98.99     LegendNANA
05:00 17.5 9.9 61 0.0 20 21   98.98     LegendNANA
06:00 18.3 10.1 59 0.0 21 18   98.97     LegendNANA
07:00 19.9 10.8 56 0.0 21 18   98.98     LegendNANA
08:00 21.8 11.7 53 0.0 22 15   98.96     LegendNANA
09:00 22.5 11.6 50 0.0 24 16   98.95 25   LegendNANA
10:00 25.1 11.9 44 0.0 25 20   98.88 27   LegendNANA
11:00 26.5 10.2 36 0.0 25 21   98.77 28   LegendNANA
12:00 29.6 9.1 28 0.0 25 26   98.72 30   LegendNANA
13:00 31.0 10.2 28 0.0 26 26   98.63 32   LegendNANA
14:00 30.6 8.1 25 0.0 27 23   98.58 31   LegendNANA
15:00 32.6 9.1 24 0.0 29 25   98.53 33   LegendNANA
16:00 31.9 9.1 24 0.0 28 22   98.49 33   LegendNANA
17:00 31.4 11.6 30 0.0 31 30   98.48 33   LegendNANA
18:00 30.0 10.3 30 0.0 31 28   98.48 31   LegendNANA
19:00 23.6 11.4 46 0.0 3 33   98.63 26   LegendNANA
20:00 21.9 14.2 62 0.0 4 18   98.66 25   LegendNANA
21:00 18.2 13.2 73 0.0 35 10   98.73     LegendNANA
22:00 16.2 12.8 80 0.0 32 10   98.77     LegendNANA
23:00 14.8 12.3 85 0.0 29 10   98.81     LegendNANA

Notes on Data Quality.

Legend

  • E = Estimated
  • M = Missing
  • NA = Not Available*
  • [empty] = Indicates an unobserved value
Date modified: